Location: Unspecified
(56.5167°N, 0.0000°E)
Time: 08:59:20
(UTC+01:00)

Cosmos 2058 - Pass Details

Date: 12 October 2022
Orbit: 557 x 580 km, 82.5° (Epoch: 02 December)

Event Time Altitude Azimuth Distance (km) Brightness Sun altitude
Rises 23:53:55 0° 345° (NNW) 2,806 7.3 -36.4°
Reaches altitude 10° 23:56:09 10° 341° (NNW) 1,898 6.3 -36.6°
Enters shadow 23:56:38 13° 340° (NNW) 1,702 6.0 -36.6°
